{"data":{"norad_id":65902,"intl_designator":"2025-224W","name":"STARLINK-35278","alt_names":[],"object_type":"PAYLOAD","status":"ACTIVE","operator":null,"country":"US","launch_date":"2025-10-07","launch_site_code":"AFETR","launch_vehicle":null,"mission":null,"orbit_class":"UNKNOWN","rcs_meters":null,"size_class":null,"mass_kg":null,"dimensions":null,"purposes":["comms"],"wikipedia_slug":null,"has_3d_model":false,"image_url":null,"decayed_at":null,"tle_current":{"epoch":"2026-05-25T01:29:14.652960Z","epoch_age_seconds":66351,"freshness":"FRESH","line1":"1 65902U 25224W   26145.06197515  .00027768  00000+0  94605-3 0  9995","line2":"2 65902  53.1593  16.8544 0001204  83.7444 276.3694 15.30203277 36562","mean_motion":15.30203277,"eccentricity":0.0001204,"inclination_deg":53.1593,"raan_deg":16.8544,"arg_perigee_deg":83.7444,"mean_anomaly_deg":276.3694,"bstar":0.00094605,"rev_number":3656,"period_min":94.10514417556,"perigee_km":474.38014249437,"apogee_km":476.03042731657,"semimajor_km":6853.3422849055,"source":"CELESTRAK","updated_at":"2026-05-25T13:38:20.983456Z"}}}